Hourly Data Report for June 02, 2008

HALIFAX STANFIELD INT'L A
NOVA SCOTIA

44°52'48.060" N
63°30'00.050" W
145.40 m
8202250
71395
YHZ

Download Data

Hourly Data (June 2008)
Hourly Data Report for June 2, 2008
TIME
LST
Temp Definition
°C
Dew Point Definition
°C
Rel Hum Definition
%
Precip. Amount Definition
mm

Wind Dir Definition
10's deg

Wind Spd Definition
km/h
Visibility Definition
km
Stn Press Definition
kPa
Hmdx Definition


Wind Chill Definition


Weather Definition


00:00 8.6 8.5 99   18 7 0.4 98.78     Fog
01:00 8.3 8.2 99   18 9 0.4 98.77     Fog
02:00 8.3 8.2 99   17 9 0.4 98.73     Fog
03:00 7.9 7.8 99   16 11 0.2 98.74     Fog
04:00 8.0 7.8 99   15 11 0.2 98.71     Fog
05:00 8.1 7.8 98   15 13 0.2 98.70     Fog
06:00 9.6 9.4 99   19 15 0.4 98.73     Fog
07:00 10.8 10.8 100   19 15 0.4 98.74     Fog
08:00 13.5 12.8 96   18 15 19.3 98.75     Mainly Clear
09:00 15.2 12.4 83   23 17 24.1 98.76     Mainly Clear
10:00 13.3 11.1 87   26 13 24.1 98.80     Cloudy
11:00 15.4 12.1 81   27 13 24.1 98.84     Cloudy
12:00 15.6 12.5 82   26 17 24.1 98.87     Cloudy
13:00 17.3 13.0 76   23 17 24.1 98.88     Mostly Cloudy
14:00 18.6 13.0 70   29 19 24.1 98.88     Mostly Cloudy
15:00 20.0 11.9 60   31 20 24.1 98.94     Mostly Cloudy
16:00 20.3 12.2 60   31 13 24.1 98.95     Mostly Cloudy
17:00 20.5 11.1 55   31 15 24.1 98.94     Mainly Clear
18:00 19.3 10.9 58   30 17 24.1 98.99     Mainly Clear
19:00 18.6 9.9 57   32 19 24.1 99.08     Mainly Clear
20:00 16.8 9.8 63   32 9 24.1 99.15     Mainly Clear
21:00 14.3 9.9 75   36 7 24.1 99.21     Clear
22:00 13.3 9.9 80   35 6 24.1 99.26     Mainly Clear
23:00 12.4 9.8 84   31 6 24.1 99.29     Clear

Notes on Data Quality.

Legend

  • E = Estimated
  • M = Missing
  • NA = Not Available*
  • [empty] = Indicates an unobserved value
Date modified: